Content
SEND FEEDBACK

Daily
Averages
Monthly
Summary
Canada

EVANSTON, NOVA SCOTIA


Home > North America > Canada > Nova Scotia
Elevation: 217 feet     Latitude: 45 31N     Longitude: 061 15W

WEATHER
 
SELECT A DAY
Number of Records: 110,890;   Date Range: 6/19/04 - 12/19/14
 
SHARE

PRINT THIS DATA

[ ← Previous Day ]
WEATHER ALMANAC - JUNE 7, 2014
[ Next Day → ]
[ °C ]   °F
Weather ElementAverageHighLow
Temperature48.9 °F52 °F (9:00 am)44.6 °F (7:17 pm)
Dewpoint48.1 °F51.8 °F (10:00 am)42.8 °F (8:00 pm)
Humidity97.1 %100 % (12:44 am)87 % (10:00 pm)
Barometer29.60 in29.76 in (10:15 pm)29.47 in (1:41 am)
Wind Speed12.3 mph21.9 mph (1:00 pm)
Wind Gust33.4 mph (7:43 pm)
Weather ElementAverage
Visibility3.9 mi
Wind DirectionW (264.6 °)

Weather ElementTotal
Precipitation---
Heating Degree Days16.7 (Base 65)
Averaged from 72 records on June 7, 2014
WEATHER CONDITIONS BREAKOUT
WIND DIRECTION BREAKOUT
WEATHER BY HOUR - JUNE 7, 2014
[ °C ]   °F
Local TimeTemperatureDewpointHumidityBarometerVisibilityWind DirectionWind SpeedGust SpeedPrecipitationEventsConditions
12:44 AM50.0 °F50.0 °F100 %29.49 in3.0 miSSE (160°)5.8 mphOvercast
1:00 AM50.0 °F50.0 °F100 %29.49 in4.0 miSE (140°)5.8 mphOvercast
1:20 AM50.0 °F50.0 °F100 %29.48 in3.0 miSouth (170°)4.6 mphRainLight Rain
1:41 AM50.0 °F50.0 °F100 %29.47 in3.0 miVariable2.3 mphOvercast
2:00 AM50.0 °F50.0 °F100 %29.48 in2.2 miVariable2.3 mphOvercast
2:17 AM50.0 °F50.0 °F100 %29.48 in2.2 miSE (140°)3.5 mphRainLight Rain
2:30 AM50.0 °F50.0 °F100 %29.47 in3.0 miSE (130°)3.5 mphRainLight Rain
2:36 AM50.0 °F50.0 °F100 %29.48 in2.0 miSE (140°)3.5 mphRainLight Rain
2:43 AM50.0 °F50.0 °F100 %29.47 in3.0 miSSE (150°)3.5 mphRainLight Rain
2:46 AM50.0 °F50.0 °F100 %29.47 in6.0 miVariable2.3 mphRainLight Rain
2:49 AM50.0 °F50.0 °F100 %29.47 in9.0 miVariable2.3 mphOvercast
3:00 AM50.0 °F50.0 °F98 %29.48 in10.0 miSouth (180°)2.3 mphClear
3:00 AM50.0 °F50.0 °F100 %29.47 in9.0 miSouth (180°)3.5 mphOvercast
3:32 AM51.8 °F50.0 °F94 %29.48 in5.0 miSW (220°)3.5 mphOvercast
3:45 AM51.8 °F50.0 °F94 %29.48 in2.5 miWest (260°)3.5 mphOvercast
4:00 AM51.8 °F50.0 °F94 %29.48 in1.2 miWest (280°)8.1 mphOvercast
4:28 AM50.0 °F50.0 °F100 %29.49 in3.0 miNNW (330°)5.8 mphOvercast
4:41 AM50.0 °F50.0 °F100 %29.49 in6.0 miNW (310°)5.8 mphOvercast
5:00 AM50.0 °F50.0 °F100 %29.49 in9.0 miNW (310°)4.6 mphOvercast
5:33 AM50.0 °F50.0 °F100 %29.50 in4.0 miWNW (290°)5.8 mphOvercast
5:37 AM50.0 °F50.0 °F100 %29.50 in2.2 miWNW (290°)4.6 mphOvercast
6:00 AM50.0 °F50.0 °F100 %29.50 in1.2 miWNW (290°)5.8 mphOvercast
6:52 AM50.0 °F50.0 °F100 %29.51 in3.0 miWNW (300°)9.2 mphOvercast
6:56 AM50.0 °F50.0 °F100 %29.51 in6.0 miWNW (290°)6.9 mphOvercast
8:00 AM51.8 °F50.0 °F94 %29.53 in9.0 miWNW (290°)8.1 mphOvercast
9:00 AM52.0 °F51.0 °F93 %29.55 in10.0 miWest (280°)12.7 mphClear
9:00 AM51.8 °F50.0 °F94 %29.54 in9.0 miWNW (290°)12.7 mph19.6 mphOvercast
10:00 AM51.8 °F51.8 °F100 %29.55 in0.6 miWNW (300°)10.4 mph19.6 mphOvercast
10:15 AM51.8 °F51.8 °F100 %29.55 in0.2 miWNW (290°)11.5 mphFog-RainLight Rain
10:54 AM51.8 °F51.8 °F100 %29.56 in1.5 miWNW (300°)16.1 mph23.0 mphOvercast
11:00 AM51.8 °F50.0 °F94 %29.56 in1.5 miWNW (290°)16.1 mph23.0 mphRainLight Rain
11:32 AM51.8 °F50.0 °F94 %29.57 in1.5 miWNW (300°)20.7 mph28.8 mphOvercast
11:34 AM51.8 °F51.8 °F100 %29.57 in1.5 miWNW (300°)16.1 mph28.8 mphRainLight Rain
11:58 AM51.8 °F50.0 °F94 %29.57 in1.2 miWNW (290°)17.3 mph24.2 mphRainLight Rain
12:00 PM51.8 °F50.0 °F94 %29.58 in1.2 miWNW (290°)17.3 mph23.0 mphRainLight Rain
12:41 PM50.0 °F50.0 °F100 %29.60 in1.8 miWNW (290°)20.7 mph27.6 mphOvercast
12:42 PM50.0 °F50.0 °F100 %29.59 in1.8 miWNW (290°)19.6 mph27.6 mphRainLight Rain
12:52 PM51.8 °F50.0 °F94 %29.60 in1.5 miWNW (290°)17.3 mph27.6 mphOvercast
12:54 PM51.8 °F50.0 °F94 %29.60 in1.2 miWNW (290°)17.3 mph27.6 mphRainLight Rain
1:00 PM51.8 °F50.0 °F94 %29.60 in1.5 miWNW (290°)21.9 mph29.9 mphRainLight Rain
1:05 PM51.8 °F50.0 °F94 %29.60 in1.2 miWNW (290°)15.0 mph29.9 mphOvercast
1:08 PM51.8 °F50.0 °F94 %29.60 in1.0 miWNW (300°)17.3 mph29.9 mphRainLight Rain
3:00 PM49.0 °F48.0 °F93 %29.63 in1.0 miWNW (290°)18.4 mphMist
3:00 PM48.2 °F48.2 °F100 %29.63 in0.6 miWNW (290°)19.6 mph31.1 mphOvercast
3:09 PM48.2 °F48.2 °F100 %29.63 in0.5 miWNW (290°)17.3 mph31.1 mphFog-RainLight Rain
3:50 PM48.2 °F48.2 °F100 %29.65 in2.5 miWNW (300°)15.0 mph29.9 mphOvercast
3:52 PM48.2 °F48.2 °F100 %29.65 in3.0 miNW (310°)16.1 mph27.6 mphOvercast
4:00 PM48.2 °F48.2 °F100 %29.65 in3.0 miWNW (300°)17.3 mph29.9 mphOvercast
4:20 PM48.2 °F48.2 °F100 %29.66 in2.5 miNW (310°)18.4 mph29.9 mphOvercast
4:31 PM48.2 °F46.4 °F93 %29.66 in1.8 miWNW (300°)16.1 mph29.9 mphRainLight Rain
5:00 PM46.4 °F46.4 °F100 %29.68 in1.8 miWNW (300°)18.4 mph29.9 mphRainLight Rain
5:48 PM46.4 °F44.6 °F93 %29.70 in1.2 miWNW (300°)13.8 mph25.3 mphOvercast
5:50 PM46.4 °F44.6 °F93 %29.69 in1.2 miWNW (300°)16.1 mph23.0 mphRainLight Rain
6:00 PM46.4 °F44.6 °F93 %29.69 in1.2 miWNW (300°)18.4 mph27.6 mphRainLight Rain
6:28 PM46.4 °F44.6 °F93 %29.70 in2.5 miNW (320°)19.6 mph27.6 mphOvercast
6:33 PM46.4 °F44.6 °F93 %29.70 in2.5 miNW (310°)15.0 mph27.6 mphRainLight Rain
6:36 PM46.4 °F44.6 °F93 %29.70 in3.0 miNW (320°)18.4 mph31.1 mphRainLight Rain
6:48 PM46.4 °F44.6 °F93 %29.71 in5.0 miNW (310°)17.3 mph26.5 mphOvercast
6:55 PM46.4 °F44.6 °F93 %29.71 in6.0 miNW (310°)16.1 mph27.6 mphOvercast
7:11 PM46.4 °F44.6 °F93 %29.72 in5.0 miNW (310°)16.1 mph25.3 mphMostly Cloudy
7:17 PM44.6 °F44.6 °F100 %29.72 in6.0 miNW (310°)17.3 mph28.8 mphOvercast
7:23 PM44.6 °F44.6 °F100 %29.72 in5.0 miNW (310°)17.3 mph27.6 mphOvercast
7:43 PM44.6 °F44.6 °F100 %29.72 in6.0 miNW (310°)19.6 mph33.4 mphOvercast
8:00 PM44.6 °F42.8 °F93 %29.73 in7.0 miNW (310°)17.3 mph32.2 mphOvercast
9:00 PM45.0 °F43.0 °F92 %29.75 in9.0 miNW (320°)13.8 mphClear
9:00 PM44.6 °F42.8 °F93 %29.75 in9.0 miNW (310°)13.8 mph25.3 mphOvercast
9:48 PM44.6 °F42.8 °F93 %29.75 in9.0 miNNW (330°)11.5 mph19.6 mphOvercast
10:00 PM46.4 °F42.8 °F87 %29.75 in9.0 miNW (310°)13.8 mph26.5 mphOvercast
10:15 PM44.6 °F44.6 °F100 %29.76 in6.0 miNW (310°)15.0 mph23.0 mphOvercast
10:16 PM44.6 °F44.6 °F100 %29.76 in5.0 miNW (310°)17.3 mph23.0 mphOvercast
10:22 PM44.6 °F44.6 °F100 %29.76 in6.0 miNW (310°)13.8 mph23.0 mphOvercast
11:00 PM44.6 °F44.6 °F100 %29.76 in9.0 miNW (320°)13.8 mph23.0 mphOvercast
Hourly data recorded from CYPD, located miles away from Evanston, Nova Scotia







STORIES FROM OUR PARTNERS